Time,TemperatureF,DewpointF,PressureIn,WindDirection,WindDirectionDegrees,WindSpeedMPH,WindSpeedGustMPH,Humidity,HourlyPrecipIn,Conditions,Clouds,dailyrainin,SoftwareType,DateUTC
2013-06-10 00:03:00,70.0,63.0,-100.00,South,187,0.0,4.0,82,1.14,,,-99.99,,2013-06-10 04:03:00,
2013-06-10 00:13:00,72.0,66.0,-100.00,SE,127,0.0,4.0,86,0.00,,,-99.99,,2013-06-10 04:13:00,
2013-06-10 00:23:00,69.0,64.0,-100.00,SE,127,0.0,4.0,88,1.14,,,-99.99,,2013-06-10 04:23:00,
2013-06-10 00:33:00,68.0,64.0,-100.00,SE,125,0.0,4.0,89,1.14,,,-99.99,,2013-06-10 04:33:00,
2013-06-10 00:42:00,68.0,64.0,-100.00,SE,141,0.0,4.0,89,0.00,,,-99.99,,2013-06-10 04:42:00,
2013-06-10 00:52:00,70.0,64.0,-100.00,SSW,194,1.0,4.0,86,1.14,,,-99.99,,2013-06-10 04:52:00,
2013-06-10 01:02:00,69.0,64.0,-100.00,WSW,241,0.0,4.0,86,18.70,,,-99.99,,2013-06-10 05:02:00,
2013-06-10 01:12:00,70.0,64.0,-100.00,South,179,1.0,4.0,85,1.14,,,-99.99,,2013-06-10 05:12:00,
2013-06-10 01:32:00,69.0,64.0,-100.00,SE,145,0.0,4.0,86,2.83,,,-99.99,,2013-06-10 05:32:00,
2013-06-10 01:42:00,69.0,64.0,-100.00,SSE,152,0.0,4.0,89,1.14,,,-99.99,,2013-06-10 05:42:00,
2013-06-10 01:52:00,68.0,63.0,-100.00,East,91,0.0,4.0,89,2.83,,,-99.99,,2013-06-10 05:52:00,
2013-06-10 02:02:00,68.0,64.0,-100.00,ESE,122,0.0,4.0,90,0.00,,,-99.99,,2013-06-10 06:02:00,
2013-06-10 02:12:00,68.0,64.0,-100.00,SE,145,0.0,4.0,90,1.14,,,-99.99,,2013-06-10 06:12:00,
2013-06-10 02:22:00,68.0,64.0,-100.00,SSE,165,0.0,4.0,91,0.00,,,-99.99,,2013-06-10 06:22:00,
2013-06-10 02:32:00,67.0,63.0,-100.00,South,172,0.0,4.0,91,0.00,,,-99.99,,2013-06-10 06:32:00,
2013-06-10 02:42:00,67.0,63.0,-100.00,SE,127,0.0,4.0,91,0.00,,,-99.99,,2013-06-10 06:42:00,
2013-06-10 02:52:00,67.0,63.0,-100.00,South,187,0.0,4.0,91,0.00,,,-99.99,,2013-06-10 06:52:00,
2013-06-10 03:02:00,67.0,63.0,-100.00,SE,125,0.0,4.0,91,0.00,,,-99.99,,2013-06-10 07:02:00,
2013-06-10 03:12:00,67.0,63.0,-100.00,SE,132,1.0,4.0,91,0.00,,,-99.99,,2013-06-10 07:12:00,
2013-06-10 03:22:00,70.0,68.0,-100.00,South,187,0.0,4.0,93,1.14,,,-99.99,,2013-06-10 07:22:00,
2013-06-10 03:32:00,69.0,66.0,-100.00,South,170,0.0,4.0,93,0.00,,,-99.99,,2013-06-10 07:32:00,
2013-06-10 03:42:00,69.0,66.0,-100.00,SSE,155,0.0,4.0,91,0.00,,,-99.99,,2013-06-10 07:42:00,
2013-06-10 03:52:00,69.0,66.0,-100.00,South,176,0.0,4.0,93,0.00,,,-99.99,,2013-06-10 07:52:00,
2013-06-10 04:02:00,67.0,63.0,-100.00,SSE,160,0.0,0.0,91,0.00,,,-99.99,,2013-06-10 08:02:00,
2013-06-10 04:12:00,70.0,66.0,-100.00,East,87,0.0,0.0,93,0.00,,,-99.99,,2013-06-10 08:12:00,
2013-06-10 04:22:00,69.0,66.0,-100.00,South,179,0.0,0.0,94,0.00,,,-99.99,,2013-06-10 08:22:00,
2013-06-10 04:32:00,67.0,63.0,-100.00,SSW,208,0.0,0.0,91,0.00,,,-99.99,,2013-06-10 08:32:00,
2013-06-10 04:42:00,67.0,64.0,-100.00,South,187,0.0,0.0,93,0.00,,,-99.99,,2013-06-10 08:42:00,
2013-06-10 04:52:00,67.0,64.0,-100.00,NE,50,0.0,0.0,93,0.00,,,-99.99,,2013-06-10 08:52:00,
2013-06-10 05:02:00,67.0,64.0,-100.00,NE,43,0.0,0.0,93,0.00,,,-99.99,,2013-06-10 09:02:00,
2013-06-10 05:12:00,67.0,64.0,-100.00,SSW,192,0.0,0.0,93,0.00,,,-99.99,,2013-06-10 09:12:00,
2013-06-10 05:22:00,67.0,64.0,-100.00,South,177,0.0,0.0,93,4.53,,,-99.99,,2013-06-10 09:22:00,
2013-06-10 05:32:00,68.0,66.0,-100.00,South,184,0.0,0.0,94,0.00,,,-99.99,,2013-06-10 09:32:00,
2013-06-10 05:43:00,66.0,63.0,-100.00,SW,218,0.0,0.0,93,0.00,,,-99.99,,2013-06-10 09:43:00,
2013-06-10 05:53:00,67.0,64.0,-100.00,SE,145,0.0,0.0,93,0.00,,,-99.99,,2013-06-10 09:53:00,
2013-06-10 06:03:00,67.0,64.0,-100.00,SSW,211,0.0,0.0,93,1.14,,,-99.99,,2013-06-10 10:03:00,
2013-06-10 06:13:00,67.0,63.0,-100.00,SSW,197,0.0,0.0,91,7.36,,,-99.99,,2013-06-10 10:13:00,
2013-06-10 06:23:00,66.0,63.0,-100.00,SE,139,0.0,0.0,93,1.14,,,-99.99,,2013-06-10 10:23:00,
2013-06-10 06:33:00,66.0,63.0,-100.00,SSW,207,0.0,0.0,93,2.83,,,-99.99,,2013-06-10 10:33:00,
2013-06-10 06:42:00,67.0,64.0,-100.00,SSE,156,0.0,0.0,93,7.36,,,-99.99,,2013-06-10 10:42:00,
2013-06-10 06:52:00,67.0,64.0,-100.00,SSW,197,1.0,1.0,94,-99.99,,,-99.99,,2013-06-10 10:52:00,
2013-06-10 07:03:00,67.0,64.0,-100.00,South,187,0.0,1.0,94,12.48,,,-99.99,,2013-06-10 11:03:00,
2013-06-10 07:12:00,67.0,64.0,-100.00,East,79,0.0,1.0,94,21.54,,,-99.99,,2013-06-10 11:12:00,
2013-06-10 07:22:00,66.0,64.0,-100.00,SSW,192,0.0,1.0,94,14.17,,,-99.99,,2013-06-10 11:22:00,
2013-06-10 07:32:00,66.0,63.0,-100.00,SSW,211,0.0,1.0,94,4.53,,,-99.99,,2013-06-10 11:32:00,
2013-06-10 07:42:00,66.0,63.0,-100.00,NW,320,0.0,1.0,94,1.14,,,-99.99,,2013-06-10 11:42:00,
2013-06-10 07:52:00,67.0,64.0,-100.00,South,177,0.0,1.0,94,4.53,,,-99.99,,2013-06-10 11:52:00,
2013-06-10 08:02:00,67.0,64.0,-100.00,ESE,122,0.0,1.0,95,4.53,,,-99.99,,2013-06-10 12:02:00,
2013-06-10 08:12:00,69.0,66.0,-100.00,SW,232,0.0,1.0,95,0.00,,,-99.99,,2013-06-10 12:12:00,
2013-06-10 08:22:00,67.0,64.0,-100.00,SE,139,0.0,1.0,94,0.00,,,-99.99,,2013-06-10 12:22:00,
2013-06-10 08:32:00,67.0,64.0,-100.00,SE,135,1.0,1.0,94,0.00,,,-99.99,,2013-06-10 12:32:00,
2013-06-10 08:42:00,70.0,68.0,-100.00,South,186,0.0,1.0,95,0.00,,,-99.99,,2013-06-10 12:42:00,
2013-06-10 08:52:00,68.0,64.0,-100.00,SSE,168,1.0,1.0,94,0.00,,,-99.99,,2013-06-10 12:52:00,
2013-06-10 09:02:00,68.0,64.0,-100.00,SSE,151,1.0,1.0,93,0.00,,,-99.99,,2013-06-10 13:02:00,
2013-06-10 09:12:00,68.0,64.0,-100.00,South,177,1.0,2.0,91,0.00,,,-99.99,,2013-06-10 13:12:00,
2013-06-10 09:22:00,69.0,64.0,-100.00,SE,132,2.0,2.0,91,0.00,,,-99.99,,2013-06-10 13:22:00,
2013-06-10 09:32:00,69.0,66.0,-100.00,South,190,2.0,2.0,90,0.00,,,-99.99,,2013-06-10 13:32:00,
2013-06-10 09:42:00,70.0,66.0,-100.00,SSE,160,2.0,4.0,90,0.00,,,-99.99,,2013-06-10 13:42:00,
2013-06-10 09:52:00,70.0,66.0,-100.00,SE,139,2.0,4.0,89,0.00,,,-99.99,,2013-06-10 13:52:00,
2013-06-10 10:02:00,69.0,64.0,-100.00,South,180,3.0,4.0,89,0.00,,,-99.99,,2013-06-10 14:02:00,
2013-06-10 10:12:00,72.0,68.0,-100.00,South,182,4.0,6.0,90,0.00,,,-99.99,,2013-06-10 14:12:00,
2013-06-10 10:22:00,70.0,66.0,-100.00,SSW,211,2.0,6.0,89,0.00,,,-99.99,,2013-06-10 14:22:00,
2013-06-10 10:32:00,70.0,66.0,-100.00,SSW,197,3.0,6.0,89,0.00,,,-99.99,,2013-06-10 14:32:00,
2013-06-10 10:42:00,70.0,66.0,-100.00,SSW,193,3.0,6.0,89,0.00,,,-99.99,,2013-06-10 14:42:00,
2013-06-10 10:52:00,70.0,66.0,-100.00,SSW,199,3.0,6.0,89,0.00,,,-99.99,,2013-06-10 14:52:00,
2013-06-10 11:03:00,71.0,66.0,-100.00,SSW,196,2.0,6.0,88,0.00,,,-99.99,,2013-06-10 15:03:00,
2013-06-10 11:12:00,71.0,64.0,-100.00,South,183,3.0,6.0,86,0.00,,,-99.99,,2013-06-10 15:12:00,
2013-06-10 11:22:00,72.0,66.0,-100.00,SSW,197,3.0,6.0,85,0.00,,,-99.99,,2013-06-10 15:22:00,
2013-06-10 11:33:00,72.0,66.0,-100.00,South,182,2.0,6.0,84,0.00,,,-99.99,,2013-06-10 15:33:00,
2013-06-10 11:43:00,72.0,66.0,-100.00,South,183,3.0,6.0,84,0.00,,,-99.99,,2013-06-10 15:43:00,
2013-06-10 11:53:00,74.0,68.0,-100.00,South,177,3.0,6.0,86,0.00,,,-99.99,,2013-06-10 15:53:00,
2013-06-10 12:03:00,72.0,66.0,-100.00,SSW,207,2.0,6.0,84,0.00,,,-99.99,,2013-06-10 16:03:00,
2013-06-10 12:13:00,73.0,66.0,-100.00,SSW,213,4.0,6.0,81,0.00,,,-99.99,,2013-06-10 16:13:00,
2013-06-10 12:23:00,72.0,66.0,-100.00,SSW,204,2.0,6.0,82,0.00,,,-99.99,,2013-06-10 16:23:00,
2013-06-10 12:33:00,71.0,66.0,-100.00,South,190,1.0,6.0,85,-99.99,,,-99.99,,2013-06-10 16:33:00,
2013-06-10 12:43:00,71.0,66.0,-100.00,South,176,0.0,6.0,89,-99.99,,,-99.99,,2013-06-10 16:43:00,
2013-06-10 12:52:00,69.0,66.0,-100.00,SSE,160,0.0,6.0,91,26.65,,,-99.99,,2013-06-10 16:52:00,
2013-06-10 13:03:00,70.0,66.0,-100.00,East,87,0.0,6.0,93,6.22,,,-99.99,,2013-06-10 17:03:00,
2013-06-10 13:14:00,70.0,66.0,-100.00,SSW,196,1.0,6.0,93,0.00,,,-99.99,,2013-06-10 17:14:00,
2013-06-10 13:27:00,71.0,68.0,-100.00,SW,223,1.0,6.0,93,0.00,,,-99.99,,2013-06-10 17:27:00,
2013-06-10 13:38:00,71.0,66.0,-100.00,SW,230,2.0,6.0,88,0.00,,,-99.99,,2013-06-10 17:38:00,
2013-06-10 13:48:00,73.0,68.0,-100.00,WSW,238,2.0,6.0,86,0.00,,,-99.99,,2013-06-10 17:48:00,
2013-06-10 13:57:00,72.0,66.0,-100.00,WSW,244,5.0,8.0,84,0.00,,,-99.99,,2013-06-10 17:57:00,
2013-06-10 14:08:00,72.0,64.0,-100.00,South,189,4.0,8.0,80,0.00,,,-99.99,,2013-06-10 18:08:00,
2013-06-10 14:14:00,72.0,64.0,-100.00,SSW,192,4.0,8.0,80,0.00,,,-99.99,,2013-06-10 18:14:00,
2013-06-10 14:25:00,73.0,64.0,-100.00,SW,218,3.0,8.0,78,0.00,,,-99.99,,2013-06-10 18:25:00,
2013-06-10 14:35:00,73.0,64.0,-100.00,SSW,197,3.0,8.0,77,0.00,,,-99.99,,2013-06-10 18:35:00,
2013-06-10 14:48:00,73.0,64.0,-100.00,SW,231,3.0,8.0,77,0.00,,,-99.99,,2013-06-10 18:48:00,
2013-06-10 14:55:00,74.0,68.0,-100.00,SW,218,4.0,8.0,84,0.00,,,-99.99,,2013-06-10 18:55:00,
2013-06-10 15:03:00,73.0,66.0,-100.00,SW,216,4.0,8.0,81,0.00,,,-99.99,,2013-06-10 19:03:00,
2013-06-10 15:13:00,73.0,66.0,-100.00,SW,224,5.0,8.0,80,0.00,,,-99.99,,2013-06-10 19:13:00,
2013-06-10 15:23:00,75.0,66.0,-100.00,SW,230,4.0,8.0,75,0.00,,,-99.99,,2013-06-10 19:23:00,
2013-06-10 15:33:00,74.0,64.0,-100.00,SW,235,5.0,8.0,75,0.00,,,-99.99,,2013-06-10 19:33:00,
2013-06-10 15:43:00,74.0,63.0,-100.00,WSW,237,6.0,8.0,72,0.00,,,-99.99,,2013-06-10 19:43:00,
2013-06-10 15:53:00,73.0,64.0,-100.00,SW,220,5.0,8.0,77,12.48,,,-99.99,,2013-06-10 19:53:00,
2013-06-10 16:03:00,72.0,63.0,-100.00,NW,317,6.0,10.0,76,0.00,,,-99.99,,2013-06-10 20:03:00,
2013-06-10 16:13:00,74.0,64.0,-100.00,NNE,15,4.0,10.0,75,0.00,,,-99.99,,2013-06-10 20:13:00,
2013-06-10 16:23:00,73.0,63.0,-100.00,West,271,5.0,10.0,72,0.00,,,-99.99,,2013-06-10 20:23:00,
2013-06-10 16:32:00,73.0,63.0,-100.00,SW,221,4.0,10.0,73,0.00,,,-99.99,,2013-06-10 20:32:00,
2013-06-10 16:43:00,74.0,64.0,-100.00,SW,220,2.0,10.0,72,0.00,,,-99.99,,2013-06-10 20:43:00,
2013-06-10 16:52:00,74.0,64.0,-100.00,West,262,1.0,10.0,73,0.00,,,-99.99,,2013-06-10 20:52:00,
2013-06-10 17:02:00,74.0,63.0,-100.00,WNW,282,2.0,10.0,71,0.00,,,-99.99,,2013-06-10 21:02:00,
2013-06-10 17:13:00,69.0,63.0,-100.00,NW,309,7.0,10.0,82,4.53,,,-99.99,,2013-06-10 21:13:00,
2013-06-10 17:23:00,65.0,61.0,-100.00,WSW,249,6.0,10.0,89,24.96,,,-99.99,,2013-06-10 21:23:00,
2013-06-10 17:33:00,69.0,64.0,-100.00,NW,324,2.0,10.0,90,0.00,,,-99.99,,2013-06-10 21:33:00,
2013-06-10 17:43:00,68.0,64.0,-100.00,SSW,203,1.0,10.0,90,0.00,,,-99.99,,2013-06-10 21:43:00,
2013-06-10 17:53:00,67.0,63.0,-100.00,South,184,1.0,10.0,89,0.00,,,-99.99,,2013-06-10 21:53:00,
2013-06-10 18:03:00,68.0,64.0,-100.00,NNW,330,0.0,10.0,89,0.00,,,-99.99,,2013-06-10 22:03:00,
2013-06-10 18:13:00,68.0,64.0,-100.00,NNW,334,1.0,10.0,89,0.00,,,-99.99,,2013-06-10 22:13:00,
2013-06-10 18:23:00,69.0,64.0,-100.00,South,184,0.0,10.0,88,0.00,,,-99.99,,2013-06-10 22:23:00,
2013-06-10 18:33:00,70.0,64.0,-100.00,WSW,245,0.0,10.0,84,0.00,,,-99.99,,2013-06-10 22:33:00,
2013-06-10 18:42:00,71.0,64.0,-100.00,SSE,168,1.0,10.0,81,0.00,,,-99.99,,2013-06-10 22:42:00,
2013-06-10 18:52:00,72.0,66.0,-100.00,WSW,245,1.0,10.0,82,0.00,,,-99.99,,2013-06-10 22:52:00,
2013-06-10 19:03:00,72.0,64.0,-100.00,South,187,2.0,10.0,81,0.00,,,-99.99,,2013-06-10 23:03:00,
2013-06-10 19:12:00,73.0,64.0,-100.00,SW,217,1.0,10.0,78,0.00,,,-99.99,,2013-06-10 23:12:00,
2013-06-10 19:22:00,75.0,64.0,-100.00,WSW,255,1.0,10.0,73,0.00,,,-99.99,,2013-06-10 23:22:00,
2013-06-10 19:32:00,74.0,64.0,-100.00,WNW,283,2.0,10.0,75,0.00,,,-99.99,,2013-06-10 23:32:00,
2013-06-10 19:42:00,74.0,63.0,-100.00,SW,216,1.0,10.0,72,0.00,,,-99.99,,2013-06-10 23:42:00,
2013-06-10 19:52:00,74.0,64.0,-100.00,NW,319,0.0,10.0,72,0.00,,,-99.99,,2013-06-10 23:52:00,
2013-06-10 20:02:00,73.0,64.0,-100.00,SSE,162,1.0,10.0,76,0.00,,,-99.99,,2013-06-11 00:02:00,
2013-06-10 20:13:00,71.0,64.0,-100.00,WSW,244,0.0,10.0,80,0.00,,,-99.99,,2013-06-11 00:13:00,
2013-06-10 20:22:00,71.0,63.0,-100.00,SE,135,0.0,10.0,80,0.00,,,-99.99,,2013-06-11 00:22:00,
2013-06-10 20:32:00,71.0,64.0,-100.00,ESE,117,0.0,10.0,81,0.00,,,-99.99,,2013-06-11 00:32:00,
2013-06-10 20:43:00,70.0,66.0,-100.00,NNW,328,0.0,10.0,88,2.83,,,-99.99,,2013-06-11 00:43:00,
2013-06-10 20:52:00,72.0,68.0,-100.00,South,190,1.0,10.0,89,0.00,,,-99.99,,2013-06-11 00:52:00,
2013-06-10 21:02:00,69.0,64.0,-100.00,SW,223,0.0,10.0,88,0.00,,,-99.99,,2013-06-11 01:02:00,
2013-06-10 21:12:00,68.0,64.0,-100.00,South,169,0.0,10.0,90,0.00,,,-99.99,,2013-06-11 01:12:00,
2013-06-10 21:22:00,68.0,64.0,-100.00,SSW,211,1.0,10.0,89,0.00,,,-99.99,,2013-06-11 01:22:00,
2013-06-10 21:33:00,67.0,63.0,-100.00,South,180,1.0,10.0,89,0.00,,,-99.99,,2013-06-11 01:33:00,
2013-06-10 21:42:00,67.0,63.0,-100.00,WNW,295,0.0,10.0,88,0.00,,,-99.99,,2013-06-11 01:42:00,
2013-06-10 21:52:00,66.0,61.0,-100.00,SW,235,1.0,10.0,88,0.00,,,-99.99,,2013-06-11 01:52:00,
2013-06-10 22:02:00,66.0,61.0,-100.00,SW,235,1.0,10.0,88,0.00,,,-99.99,,2013-06-11 02:02:00,
2013-06-10 22:12:00,65.0,61.0,-100.00,WSW,241,2.0,10.0,86,26.65,,,-99.99,,2013-06-11 02:12:00,
2013-06-10 22:22:00,67.0,63.0,-100.00,WSW,240,1.0,10.0,90,0.00,,,-99.99,,2013-06-11 02:22:00,
2013-06-10 22:32:00,65.0,61.0,-100.00,WNW,282,1.0,10.0,89,0.00,,,-99.99,,2013-06-11 02:32:00,
2013-06-10 22:42:00,64.0,61.0,-100.00,WSW,251,0.0,10.0,90,0.00,,,-99.99,,2013-06-11 02:42:00,
2013-06-10 22:52:00,64.0,61.0,-100.00,WNW,290,0.0,10.0,90,0.00,,,-99.99,,2013-06-11 02:52:00,
2013-06-10 23:03:00,64.0,61.0,-100.00,NNE,12,0.0,10.0,90,0.00,,,-99.99,,2013-06-11 03:03:00,
2013-06-10 23:13:00,63.0,59.0,-100.00,SE,135,0.0,10.0,91,0.00,,,-99.99,,2013-06-11 03:13:00,
2013-06-10 23:22:00,63.0,61.0,-100.00,SSW,207,0.0,10.0,93,0.00,,,-99.99,,2013-06-11 03:22:00,
2013-06-10 23:32:00,63.0,61.0,-100.00,SSW,196,0.0,10.0,93,0.00,,,-99.99,,2013-06-11 03:32:00,
2013-06-10 23:43:00,63.0,61.0,-100.00,SSW,199,0.0,10.0,93,0.00,,,-99.99,,2013-06-11 03:43:00,
2013-06-10 23:53:00,64.0,61.0,-100.00,SSE,155,0.0,10.0,93,0.00,,,-99.99,,2013-06-11 03:53:00,